Weather in Shahan

Kazakhstan     49°49′06″N   72°39′14″E
temp.,
°C
wind,
m/s
gust,
m/s
humid.,
%
clouds,
%
prec.,
mm/h
press.,
hPa
HPBL,
m
7 may, fri
fri700:00+19sw3451100 0.1 101179
03:00+16nnw3549100 0.0 1012108
06:00+16nne71043100 0.0 1013433
09:00+16ne6629100 0.0 1016835
12:00+19ne4428100 0.0 10171398
15:00+20nne4327100 0.0 10171861
18:00+20ne542697 0.0 10181778
21:00+16ne6103361 0.0 1019295
8 may, sat
sat800:00+13ene6124188 0.0 1020327
03:00+11e595098 0.0 1020191
06:00+12e5104584 0.0 1020242
09:00+14se584799 0.0 1019352
12:00+15se6852100 0.1 1019433
15:00+21se5735100 0.0 10161859
18:00+17ne446397 0.4 1016271
21:00+16e465899 0.0 101589
9 may, sun
sun900:00+15se457953 0.9 1014102
03:00+14se4769100 0.1 1013108
06:00+14sse41160100 0.2 1012178
09:00+17s81456100 0.6 1012516
12:00+13se3579100 2.9 1012213
15:00+12se4790100 4.8 1012338
18:00+15sse71185100 5.6 1009713
21:00+13s47903 0.8 1008124
10 may, mon
mon1000:00+11s34935 1.5 100757
03:00+10sw49915 0.2 1007183
06:00+10sw5992100 0.4 1007340
09:00+12wsw4693100 2.3 1008469
12:00+14wsw777389 2.8 1008956
15:00+15w666999 0.1 10091099
18:00+14wnw447080 0.3 1010773
21:00+11nne5592100 1.7 1012330
11 may, tue
tue1100:00+9ne81187100 3.2 1013485
03:00+9ne71276100 0.4 1014684
06:00+9ne71066100 0.4 1016792
09:00+11nne68542 0.0 10171081
12:00+14nne774287 0.0 10172090
15:00+13n7742100 0.0 10191721
18:00+13n684495 0.0 10201962
21:00+10nne365711 0.0 1022108